Regional Weather Roundup
Issued by NWS

Home | Current Version | Previous Version | Text Only | Print | Product List | Glossary On
Versions: 1 2 3 4 5 6 7 8 9 10 11 12 13 14 15 16 17 18 19 20 21 22 23 24 25 26 27 28 29 30 31 32 33 34 35 36 37 38 39 40 41 42 43 44 45 46 47 48 49 50
648
ASUS44 KBMX 182010
RWRAL

ALABAMA REGIONAL WEATHER ROUNDUP
NATIONAL WEATHER SERVICE BIRMINGHAM AL
200 PM CST THU JAN 18 2018

NOTE: "FAIR" INDICATES FEW OR NO CLOUDS BELOW 12,000 FEET
WITH NO SIGNIFICANT WEATHER AND/OR OBSTRUCTIONS TO VISIBILITY.

THE REMARK "TC" DENOTES TEMPERATURE IN DEGREES CELSIUS.

ALZ001>011-014-016>018-020-182100-
NORTH ALABAMA

CITY           SKY/WX    TMP DP  RH WIND       PRES   REMARKS
MUSCLE SHOALS  FAIR      34  15  46 W7        30.47F WCI  28
HUNTSVILLE     FAIR      35  18  49 W8        30.45F WCI  29
DECATUR        FAIR      32  13  45 W7        30.47F WCI  26
HALEYVILLE     FAIR      37  12  35 W7        30.45F WCI  32
GADSDEN        FAIR      40   9  28 NW7       30.43F
$$

ALZ012-013-022-023-030>036-040>044-182100-
WEST CENTRAL ALABAMA

CITY           SKY/WX    TMP DP  RH WIND       PRES   REMARKS
TUSCALOOSA     FAIR      41   9  26 VRB6      30.47F
DEMOPOLIS        N/A     40  10  28 W8        30.48F WCI  34
$$

ALZ015-024>026-033>036-041>044-182100-
CENTRAL ALABAMA

CITY           SKY/WX    TMP DP  RH WIND       PRES   REMARKS
BIRMINGHAM     FAIR      39   6  25 NW8       30.46F WCI  33
MONTGOMERY     FAIR      40  14  34 NW7       30.44F
SHELBY CO ARPT FAIR      40   8  26 VRB7      30.43F
MAXWELL AFB    FAIR      42  15  33 W6        30.42F
GREENVILLE     FAIR      42  11  28 NW7       30.41F
SELMA          FAIR      39  12  33 W7        30.45F WCI  34
PRATTVILLE     FAIR      41  13  32 W6        30.44F
BESSEMER       FAIR      38   9  30 NW7       30.44F WCI  33
TALLADEGA      FAIR      38  11  33 CALM      30.44F
PELL CITY      CLEAR     41   9  26 NW7       30.43F
MARION         FAIR      38  15  40 NW8G18    30.45F WCI  32
SYLACAUGA      FAIR      40  17  39 NE6       30.43F
$$

ALZ019-021-028-029-037-038-045>048-182100-
EAST CENTRAL ALABAMA

CITY           SKY/WX    TMP DP  RH WIND       PRES   REMARKS
ANNISTON       FAIR      40  10  29 N7        30.42F
ALEXANDER CITY FAIR      41  20  41 NW9       30.39F
AUBURN         FAIR      41  13  31 NW8       30.38F
$$

ALZ051>064-182100-
SOUTHWEST ALABAMA

CITY           SKY/WX    TMP DP  RH WIND       PRES   REMARKS
MOBILE         FAIR      43   9  24 N9        30.45F
BROOKLEY FIELD FAIR      44  12  27 N12       30.47F
EVERGREEN      FAIR      44  10  25 VRB6      30.44F
$$

ALZ049-050-065>069-182100-
SOUTHEAST ALABAMA

CITY           SKY/WX    TMP DP  RH WIND       PRES   REMARKS
DOTHAN         FAIR      48   9  20 N6        30.40F
OZARK          FAIR      47   7  19 NW6       30.38F
TROY           FAIR      42  14  32 NW6       30.40F
EUFAULA        FAIR      47  14  26 VRB6      30.37F
$$




USA.gov is the U.S. government's official web portal to all federal, state and local government web resources and services.